[[{"header":{"parameterUnit":"m.s-1","parameterCategory":1,"la1":30.2991,"la2":30.254,"lo1":-89.0895,"lo2":-89.0444,"dy":0.0017,"dx":0.0017,"nx":28,"ny":28,"refTime":"2023-09-23T03:00:00:Z","depth":0,"parameterNumber":2,"parameterNumberName":"U-component_of_WINDS"},"data":[0,0,0,0,0,0,0,0,0,0,0,0,0,0,0,0,0,0,0,0,0,0,0,0,0,0,0,0,0,0,0,0,0,0,0,0,0,0,0,0,0,0,0,0,0,0,0,0,0,0,0,0,0,0,0,0,0,0,1.025,1.025,0,1.0304,1.0305,1.0305,1.0279,1.0278,1.0276,1.0275,1.0332,1.0335,1.0338,0,0,0,0,0,0,0,0,0,0,0,0,0,1.0124,1.0126,1.025,1.025,1.0251,1.0304,1.0305,1.0305,1.0279,1.0278,1.0276,1.0274,1.0331,1.0335,1.0338,0,0,0,0,0,0,0,0,0,0,0,0,0,1.0178,1.0127,1.025,1.0244,1.0245,1.0304,1.0305,1.0306,1.028,1.0278,1.0276,1.0274,1.033,1.0334,1.0339,1.0407,0,0,1.0352,1.0353,0,0,0,0,0,0,0,0,1.0175,1.0183,1.0245,1.0245,1.0245,1.0283,1.0281,1.034,1.028,1.0266,1.0275,1.0273,1.0318,1.0323,1.0338,1.0409,1.0412,1.0352,1.0354,1.0356,1.0358,0,0,0,0,0,0,0,1.0172,1.0181,1.0271,1.0245,1.0246,1.0239,1.0245,1.0292,1.0303,1.0267,1.0266,1.0272,1.0317,1.0334,1.0339,1.0413,1.0352,1.0356,1.0358,1.036,1.054,1.0542,0,0,0,0,0,0,1.0168,1.0178,1.027,1.0273,1.0204,1.0243,1.025,1.0273,1.0303,1.0305,1.0274,1.0271,1.0327,1.0334,1.0341,1.042,1.0356,1.036,1.0363,1.0537,1.054,1.0543,0,0,0,0,0,0,1.0165,1.0176,1.0267,1.0225,1.0236,1.0248,1.0274,1.0275,1.0291,1.0308,1.0309,1.0289,1.0326,1.0335,1.039,1.0421,1.0362,1.0366,1.0535,1.0538,1.0541,1.058,0,0,0,0,0,0,1.0162,1.0176,1.0202,1.0226,1.0238,1.0315,1.0276,1.0277,1.0298,1.0295,1.0322,1.0324,1.0325,1.0383,1.0394,1.0426,1.0369,1.0532,1.0536,1.054,1.0576,1.0584,1.0591,0,0,0,0,0,1.0157,1.0211,1.0203,1.0214,1.0271,1.0317,1.0325,1.0324,1.0301,1.0327,1.0337,1.0323,1.0417,1.0389,1.0401,1.0435,1.053,1.0535,1.054,1.0572,1.0582,1.0591,0,0,0,0,0,0,1.0192,1.0214,1.0206,1.0269,1.0291,1.0313,1.0345,1.0335,1.0365,1.0361,1.0359,1.0366,1.0422,1.0434,1.0403,1.0501,1.047,1.0477,1.049,1.05,1.0508,1.0502,1.0373,0,0,0,0,0,1.0207,1.0242,1.026,1.0314,1.0326,1.0334,1.0354,1.0351,1.0375,1.0384,1.0399,1.0422,1.0457,1.0479,1.0512,1.0578,1.0582,1.0607,1.0615,1.0621,1.0627,1.066,1.067,1.0559,1.0559,1.0559,0,0,1.0238,1.0255,1.0277,1.0321,1.0338,1.0375,1.0342,1.0383,1.0409,1.0391,1.0442,1.0454,1.048,1.054,1.0567,1.0552,1.0659,1.0627,1.0632,1.0635,1.0666,1.0676,1.0686,1.0563,1.0562,1.0561,0,0,1.0313,1.033,1.0375,1.0392,1.0418,1.0423,1.0434,1.0457,1.0463,1.0515,1.0501,1.0533,1.0593,1.0611,1.0628,1.0708,1.0696,1.0719,1.0759,1.0791,1.08,1.0807,1.0833,1.0843,1.0726,1.0726,1.0726,0,1.0348,1.0402,1.04,1.0441,1.0459,1.0444,1.0489,1.0506,1.0542,1.0555,1.0538,1.0611,1.0628,1.069,1.0709,1.0724,1.0736,1.0715,1.0798,1.0806,1.0813,1.0838,1.0848,1.0728,1.0728,1.0728,1.0727,0,1.0443,1.048,1.0514,1.0547,1.057,1.0613,1.0617,1.0641,1.0636,1.0642,1.0694,1.0714,1.0748,1.0764,1.0761,1.0825,1.0814,1.0798,1.0767,1.0826,1.0849,1.0859,1.0732,1.0731,1.073,1.0729,0,0,1.0541,1.057,1.0583,1.0596,1.0623,1.0651,1.0693,1.0726,1.0745,1.0771,1.0804,1.0855,1.0839,1.0858,1.0857,1.0885,1.0944,1.0865,1.0866,1.0877,1.1013,1.1024,1.1035,1.0936,1.0938,1.094,1.101,0,1.0615,1.0687,1.0685,1.0752,1.0785,1.077,1.0806,1.0826,1.0833,1.0862,1.087,1.0905,1.0883,1.0894,1.0921,1.0931,1.0971,1.0926,1.0966,1.0968,1.0958,1.1047,1.1059,1.1124,1.1019,1.1021,1.1022,0,1.0711,1.0737,1.0806,1.0826,1.084,1.0872,1.0901,1.093,1.0951,1.0954,1.0975,1.0969,1.101,1.0979,1.1035,1.1005,1.1021,1.1028,1.1031,1.1033,1.0997,1.1049,1.1145,1.1154,1.1037,1.1036,1.1035,0,1.0772,1.0825,1.0872,1.0885,1.0909,1.0932,1.0943,1.0963,1.0982,1.1008,1.102,1.1051,1.1067,1.1091,1.1093,1.1071,1.1149,1.1118,1.1151,1.1151,1.1167,1.1165,1.1265,1.1182,1.1182,1.1182,1.1181,0,1.0854,1.0896,1.0899,1.0928,1.0975,1.0973,1.1019,1.1028,1.1046,1.1076,1.1066,1.1095,1.1096,1.1125,1.1127,1.1172,1.1181,1.1183,1.1183,1.1183,1.1182,1.1192,1.1186,1.1184,1.1184,1.1183,1.1183,0,1.0929,1.0933,1.0983,1.1001,1.1007,1.104,1.1055,1.1083,1.1088,1.1126,1.1135,1.1144,1.1178,1.1182,1.1223,1.1224,1.1277,1.1273,1.1269,1.1267,1.1299,1.1295,1.1406,1.1419,1.133,1.1331,1.1332,0,1.0979,1.1011,1.1032,1.1051,1.1063,1.1094,1.1113,1.1112,1.1132,1.1159,1.1182,1.1215,1.124,1.1295,1.1305,1.1335,1.133,1.1367,1.1334,1.1332,1.1327,1.1324,1.1326,1.1372,1.1373,1.1374,1.1375,0,1.1068,1.1067,1.1095,1.1122,1.1145,1.1167,1.1188,1.1204,1.1206,1.1229,1.1262,1.1282,1.1322,1.1353,1.1382,1.1394,1.1384,1.1385,1.1394,1.1393,1.1388,1.1388,1.1283,1.1382,1.1381,1.1381,1.138,1.138,1.113,1.1156,1.1175,1.1205,1.122,1.1239,1.1264,1.1273,1.13,1.1331,1.133,1.1366,1.1386,1.1423,1.1437,1.1465,1.1453,1.1467,1.1469,1.1472,1.1474,1.1385,1.1471,1.1471,1.1471,1.1471,1.147,0,1.1216,1.1226,1.1254,1.1282,1.1305,1.1294,1.1316,1.1336,1.1367,1.1386,1.1411,1.1448,1.1479,1.1491,1.152,1.154,1.1536,1.1548,1.1545,1.1547,1.1484,1.1472,1.155,1.155,1.155,1.155,1.155,1.155,1.1263,1.1306,1.1307,1.1358,1.1368,1.1402,1.1415,1.1433,1.1447,1.1489,1.1513,1.1521,1.1536,1.1566,1.1593,1.1596,1.1606,1.1619,1.162,1.156,1.1552,1.1544,1.1533,1.1622,1.1622,1.168,1.168,1.1681]},{"header":{"parameterUnit":"m.s-1","parameterCategory":1,"la1":30.2991,"la2":30.254,"lo1":-89.0895,"lo2":-89.0444,"dy":0.0017,"dx":0.0017,"nx":28,"ny":28,"refTime":"2023-09-23T03:00:00:Z","depth":0,"parameterNumber":3,"parameterNumberName":"V-component_of_WINDS"},"data":[0,0,0,0,0,0,0,0,0,0,0,0,0,0,0,0,0,0,0,0,0,0,0,0,0,0,0,0,0,0,0,0,0,0,0,0,0,0,0,0,0,0,0,0,0,0,0,0,0,0,0,0,0,0,0,0,0,0,-0.0951,-0.0951,0,-0.0966,-0.0966,-0.0966,-0.0978,-0.0978,-0.0978,-0.0978,-0.0992,-0.0993,-0.0993,0,0,0,0,0,0,0,0,0,0,0,0,0,-0.0932,-0.0933,-0.0951,-0.0951,-0.0952,-0.0966,-0.0966,-0.0967,-0.0978,-0.0978,-0.0978,-0.0978,-0.0992,-0.0992,-0.0993,0,0,0,0,0,0,0,0,0,0,0,0,0,-0.0943,-0.0933,-0.0951,-0.0959,-0.096,-0.0966,-0.0966,-0.0967,-0.0978,-0.0978,-0.0978,-0.0978,-0.0992,-0.0992,-0.0993,-0.0992,0,0,-0.0994,-0.0994,0,0,0,0,0,0,0,0,-0.0943,-0.0944,-0.0958,-0.0959,-0.096,-0.097,-0.0965,-0.0975,-0.0978,-0.0971,-0.0978,-0.0979,-0.0985,-0.0986,-0.0988,-0.0992,-0.0993,-0.0994,-0.0994,-0.0994,-0.0995,0,0,0,0,0,0,0,-0.0942,-0.0943,-0.0957,-0.0958,-0.0959,-0.0962,-0.0964,-0.0967,-0.0977,-0.0972,-0.0973,-0.0974,-0.0985,-0.0988,-0.0989,-0.0993,-0.0994,-0.0994,-0.0995,-0.0995,-0.0999,-0.0998,0,0,0,0,0,0,-0.094,-0.0943,-0.0957,-0.0958,-0.0951,-0.0962,-0.0964,-0.0967,-0.0977,-0.0978,-0.0974,-0.0975,-0.0987,-0.0988,-0.0989,-0.0989,-0.0994,-0.0995,-0.0995,-0.0999,-0.0999,-0.0998,0,0,0,0,0,0,-0.0939,-0.0941,-0.0956,-0.095,-0.0952,-0.0962,-0.0965,-0.0967,-0.0969,-0.0979,-0.098,-0.0975,-0.0987,-0.0989,-0.0991,-0.099,-0.0995,-0.0995,-0.0999,-0.0999,-0.0998,-0.0989,0,0,0,0,0,0,-0.0939,-0.0941,-0.0941,-0.095,-0.0953,-0.0958,-0.0965,-0.0967,-0.097,-0.0971,-0.098,-0.0981,-0.0987,-0.0991,-0.0992,-0.099,-0.0996,-0.0999,-0.0999,-0.0999,-0.0989,-0.0988,-0.0988,0,0,0,0,0,-0.0938,-0.0937,-0.0941,-0.0942,-0.0953,-0.0958,-0.0959,-0.0967,-0.097,-0.097,-0.0976,-0.0981,-0.099,-0.0991,-0.0992,-0.0991,-0.0999,-0.0999,-0.0999,-0.099,-0.0989,-0.0988,0,0,0,0,0,0,-0.0926,-0.0938,-0.0942,-0.0944,-0.095,-0.096,-0.096,-0.0965,-0.097,-0.0971,-0.0979,-0.0981,-0.0983,-0.0987,-0.0988,-0.0991,-0.0995,-0.0995,-0.0988,-0.0987,-0.0986,-0.0985,-0.0996,0,0,0,0,0,-0.0923,-0.0927,-0.0938,-0.0938,-0.0941,-0.095,-0.0953,-0.0958,-0.0964,-0.0967,-0.0973,-0.0978,-0.0983,-0.0985,-0.0989,-0.099,-0.0992,-0.099,-0.0989,-0.0988,-0.0988,-0.099,-0.0989,-0.0997,-0.0997,-0.0997,0,0,-0.0918,-0.0925,-0.0927,-0.0936,-0.0941,-0.0945,-0.0952,-0.0955,-0.0958,-0.0967,-0.097,-0.0975,-0.0982,-0.0984,-0.0985,-0.0988,-0.0986,-0.0988,-0.0987,-0.0987,-0.0989,-0.0988,-0.0988,-0.0997,-0.0997,-0.0997,0,0,-0.091,-0.0916,-0.0918,-0.0923,-0.0931,-0.0938,-0.0938,-0.0947,-0.0951,-0.0955,-0.0962,-0.0965,-0.0972,-0.0977,-0.0981,-0.0976,-0.0981,-0.0977,-0.0972,-0.0974,-0.0973,-0.0972,-0.0971,-0.0971,-0.0977,-0.0977,-0.0977,0,-0.0903,-0.0909,-0.0918,-0.0921,-0.0925,-0.0934,-0.0936,-0.094,-0.0949,-0.0952,-0.0954,-0.0964,-0.0969,-0.0973,-0.0972,-0.0974,-0.0975,-0.0976,-0.0972,-0.0972,-0.0972,-0.0971,-0.097,-0.0977,-0.0977,-0.0977,-0.0977,0,-0.0899,-0.0903,-0.0903,-0.0913,-0.0917,-0.0919,-0.0928,-0.0931,-0.0937,-0.0943,-0.0946,-0.0953,-0.096,-0.0961,-0.0966,-0.0966,-0.0967,-0.0971,-0.0975,-0.097,-0.0969,-0.0969,-0.0976,-0.0976,-0.0976,-0.0976,0,0,-0.0883,-0.0898,-0.0898,-0.0903,-0.0913,-0.0917,-0.092,-0.0927,-0.0929,-0.0935,-0.0938,-0.0944,-0.0948,-0.0952,-0.0958,-0.0959,-0.0956,-0.0963,-0.0963,-0.0962,-0.0957,-0.0954,-0.0953,-0.0959,-0.0959,-0.0959,-0.0956,0,-0.0877,-0.0884,-0.0892,-0.0896,-0.09,-0.091,-0.0912,-0.0919,-0.0925,-0.0929,-0.0936,-0.094,-0.0945,-0.0948,-0.0949,-0.0956,-0.0955,-0.0956,-0.0962,-0.0962,-0.096,-0.0953,-0.0949,-0.0946,-0.0956,-0.0956,-0.0956,0,-0.0871,-0.0878,-0.0882,-0.0893,-0.0895,-0.0897,-0.0905,-0.0909,-0.0917,-0.0921,-0.0926,-0.0932,-0.0936,-0.094,-0.0946,-0.0947,-0.095,-0.0953,-0.0954,-0.0954,-0.0959,-0.0953,-0.0945,-0.0944,-0.0955,-0.0955,-0.0955,0,-0.0859,-0.0869,-0.0873,-0.0877,-0.089,-0.0891,-0.0897,-0.0905,-0.0909,-0.0915,-0.0918,-0.0924,-0.0928,-0.0933,-0.0941,-0.0943,-0.0946,-0.0951,-0.095,-0.095,-0.095,-0.0949,-0.0942,-0.0951,-0.0951,-0.0951,-0.0951,0,-0.0852,-0.0854,-0.0868,-0.0871,-0.0874,-0.0884,-0.0886,-0.0893,-0.09,-0.0904,-0.0912,-0.0916,-0.0926,-0.0931,-0.0937,-0.0941,-0.0943,-0.0946,-0.0948,-0.0946,-0.0945,-0.0948,-0.0948,-0.0951,-0.0951,-0.0951,-0.0951,0,-0.0839,-0.0849,-0.0854,-0.0866,-0.0869,-0.0871,-0.0881,-0.0884,-0.0891,-0.0896,-0.0898,-0.0908,-0.0914,-0.0923,-0.0931,-0.0936,-0.0939,-0.0942,-0.0936,-0.0937,-0.0936,-0.0936,-0.093,-0.0929,-0.0939,-0.0939,-0.0939,0,-0.0834,-0.0836,-0.0849,-0.0852,-0.0858,-0.0863,-0.0867,-0.0878,-0.0882,-0.0892,-0.0893,-0.09,-0.0906,-0.0915,-0.0924,-0.0931,-0.0933,-0.0931,-0.0934,-0.0932,-0.0934,-0.0934,-0.0934,-0.093,-0.093,-0.0929,-0.0929,0,-0.0823,-0.0828,-0.0834,-0.0843,-0.0848,-0.0855,-0.0862,-0.0864,-0.0876,-0.088,-0.0887,-0.0892,-0.0901,-0.0908,-0.0916,-0.0921,-0.0927,-0.0928,-0.0928,-0.0926,-0.0923,-0.0925,-0.0934,-0.0928,-0.0928,-0.0928,-0.0929,-0.0929,-0.0814,-0.0817,-0.0826,-0.0833,-0.084,-0.0847,-0.0851,-0.0858,-0.0864,-0.0873,-0.0879,-0.0885,-0.0894,-0.0906,-0.0911,-0.0916,-0.0919,-0.0919,-0.0919,-0.0919,-0.0918,-0.0922,-0.0918,-0.0918,-0.0918,-0.0918,-0.0918,0,-0.0804,-0.0811,-0.0818,-0.0828,-0.0834,-0.084,-0.0848,-0.0852,-0.0858,-0.0866,-0.0872,-0.088,-0.0887,-0.0897,-0.0904,-0.0907,-0.091,-0.0909,-0.0908,-0.091,-0.0915,-0.0915,-0.0906,-0.0906,-0.0906,-0.0906,-0.0906,-0.0906,-0.0799,-0.0805,-0.0811,-0.082,-0.0827,-0.0834,-0.0839,-0.0845,-0.0852,-0.086,-0.0867,-0.0873,-0.0882,-0.089,-0.0897,-0.09,-0.0902,-0.09,-0.0903,-0.0908,-0.0909,-0.091,-0.091,-0.09,-0.09,-0.0897,-0.0897,-0.0897]}]]